Weather History for KCPW - December, 2012

Change the Weather History Date:

Monday, December 3, 2012

  Actual Average (KALS) Record (KALS)
Temperature  
Mean Temperature 24 °F 21 °F  
Max Temperature 30 °F 38 °F 62 °F (2010)
Min Temperature 19 °F 4 °F -20 °F (1943)
Degree Days  
Heating Degree Days 40 44  
Month to date heating degree days 130  
Since 1 July heating degree days 2305  
Cooling Degree Days 0 0  
Month to date cooling degree days 0  
Year to date cooling degree days 51  
Moisture  
Dew Point 21 °F    
Average Humidity 87    
Maximum Humidity 100    
Minimum Humidity 64    
Precipitation  
Precipitation 0.08 in 0.01 in 0.91 in (1964)
Month to date precipitation 0.03  
Year to date precipitation 6.99  
Snow  
Snow 0.00 in 0.10 in 14.70 in (1964)
Month to date snowfall 0.4  
Since 1 July snowfall 6.2  
Snow Depth -    
Sea Level Pressure  
Sea Level Pressure 30.22 in    
Wind  
Wind Speed 15 mph (SW)    
Max Wind Speed 29 mph    
Max Gust Speed 36 mph    
Visibility 8 miles    
Events Fog , Snow    
T = Trace of Precipitation, MM = Missing Value Source: NWS Daily Summary

Daily Weather History Graph

Daily Weather History Graph

Search for Another Location

Airport or City:

Trip Planner

Search our weather history database for the weather conditions in past years. The results will help you decide how hot, cold, wet, or windy it might be!

Date:

Astronomy

Dec. 03, 2012 Rise Set
Actual Time 7:05 AM MST 4:49 PM MST
Civil Twilight 6:36 AM MST 5:17 PM MST
Nautical Twilight 6:04 AM MST 5:50 PM MST
Astronomical Twilight 5:32 AM MST 6:21 PM MST
Moon 9:35 PM MST (12/3) 10:32 AM MST (12/3)
Length of Visible Light 10h 41m
Length of Day
9h 43m
Waning Gibbous, 77% of the Moon is Illuminated
Dec 3
Waning Gibbous
Dec 6
Last Quarter
Dec 13
New
Dec 19
First Quarter
Dec 28
Full

Hourly Weather History & Observations

Time (MST) Temp. Windchill Dew Point Humidity Pressure Visibility Wind Dir Wind Speed Gust Speed Precip Events Conditions
12:02 AM 24.8 °F 10.0 °F 17.6 °F 74% 30.17 in 10.0 mi SW 21.9 mph 34.5 mph N/A   Overcast
12:22 AM 24.8 °F 11.1 °F 17.6 °F 74% 30.17 in 10.0 mi SW 18.4 mph 28.8 mph N/A   Overcast
12:42 AM 24.8 °F 12.4 °F 17.6 °F 74% 30.17 in 10.0 mi SSW 15.0 mph 24.2 mph N/A   Overcast
1:02 AM 24.8 °F 11.5 °F 17.6 °F 74% 30.17 in 10.0 mi SW 17.3 mph 23.0 mph N/A   Overcast
1:22 AM 24.8 °F 11.9 °F 17.6 °F 74% 30.14 in 10.0 mi SSW 16.1 mph 25.3 mph N/A   Overcast
1:42 AM 24.8 °F 11.9 °F 17.6 °F 74% 30.16 in 10.0 mi SW 16.1 mph 23.0 mph N/A   Overcast
2:02 AM 24.8 °F 11.1 °F 17.6 °F 74% 30.15 in 10.0 mi SSW 18.4 mph 24.2 mph N/A   Overcast
2:22 AM 23.0 °F 9.6 °F 17.6 °F 80% 30.15 in 10.0 mi SW 16.1 mph 24.2 mph N/A   Overcast
2:42 AM 23.0 °F 7.6 °F 17.6 °F 80% 30.15 in 10.0 mi SSW 21.9 mph 28.8 mph N/A   Overcast
3:02 AM 23.0 °F 6.9 °F 15.8 °F 74% 30.14 in 10.0 mi SW 24.2 mph 31.1 mph N/A   Overcast
3:22 AM 23.0 °F 9.2 °F 15.8 °F 74% 30.14 in 10.0 mi SSW 17.3 mph 31.1 mph N/A   Overcast
3:42 AM 23.0 °F 7.2 °F 14.0 °F 68% 30.12 in 10.0 mi SW 23.0 mph 32.2 mph N/A   Overcast
4:02 AM 21.2 °F 3.3 °F 15.8 °F 80% 30.12 in 10.0 mi SW 28.8 mph 35.7 mph N/A   Overcast
4:22 AM 21.2 °F 5.2 °F 17.6 °F 86% 30.15 in 10.0 mi SW 21.9 mph 31.1 mph N/A   Overcast
4:42 AM 21.2 °F 6.4 °F 17.6 °F 86% 30.15 in 10.0 mi SW 18.4 mph 28.8 mph N/A   Overcast
5:02 AM 21.2 °F 10.9 °F 19.4 °F 93% 30.17 in 10.0 mi SW 9.2 mph 24.2 mph N/A   Overcast
5:22 AM 21.2 °F 8.9 °F 19.4 °F 93% 30.17 in 10.0 mi SW 12.7 mph - N/A   Mostly Cloudy
5:42 AM 21.2 °F 6.8 °F 19.4 °F 93% 30.16 in 10.0 mi WSW 17.3 mph 21.9 mph N/A   Scattered Clouds
6:02 AM 21.2 °F 9.5 °F 19.4 °F 93% 30.17 in 10.0 mi SW 11.5 mph 21.9 mph N/A   Clear
6:22 AM 19.4 °F 5.5 °F 19.4 °F 100% 30.16 in 10.0 mi SW 15.0 mph - N/A   Clear
6:42 AM 19.4 °F 5.5 °F 19.4 °F 100% 30.17 in 10.0 mi SW 15.0 mph - N/A   Clear
7:02 AM 19.4 °F 5.0 °F 19.4 °F 100% 30.16 in 10.0 mi SW 16.1 mph - N/A   Scattered Clouds
7:22 AM 19.4 °F 5.0 °F 19.4 °F 100% 30.17 in 4.0 mi SW 16.1 mph - N/A   Mostly Cloudy
7:42 AM 19.4 °F 5.5 °F 19.4 °F 100% 30.18 in 4.0 mi SW 15.0 mph - N/A   Mostly Cloudy
8:02 AM 19.4 °F 5.0 °F 19.4 °F 100% 30.17 in 10.0 mi SW 16.1 mph - N/A   Scattered Clouds
8:22 AM 21.2 °F 7.3 °F 21.2 °F 100% 30.17 in 4.0 mi SW 16.1 mph - N/A   Scattered Clouds
8:42 AM 24.8 °F 14.6 °F 21.2 °F 86% 30.18 in 10.0 mi SW 10.4 mph 16.1 mph N/A   Scattered Clouds
9:02 AM 24.8 °F 15.3 °F 21.2 °F 86% 30.18 in 10.0 mi SSW 9.2 mph - N/A   Scattered Clouds
9:22 AM 26.6 °F 20.0 °F 21.2 °F 80% 30.19 in 10.0 mi SW 5.8 mph - N/A   Scattered Clouds
9:42 AM 28.4 °F 19.7 °F 21.2 °F 74% 30.20 in 10.0 mi WSW 9.2 mph - N/A   Clear
10:02 AM 28.4 °F 23.3 °F 21.2 °F 74% 30.22 in 10.0 mi SW 4.6 mph - N/A   Clear
10:21 AM 30.2 °F 24.3 °F 19.4 °F 64% 30.21 in 10.0 mi West 5.8 mph - N/A   Clear
10:42 AM 28.4 °F 19.1 °F 21.2 °F 74% 30.21 in 10.0 mi South 10.4 mph 18.4 mph N/A   Clear
11:02 AM 30.2 °F 20.8 °F 21.2 °F 69% 30.22 in 10.0 mi SSW 11.5 mph 17.3 mph N/A   Clear
11:21 AM 30.2 °F 20.8 °F 21.2 °F 69% 30.22 in 10.0 mi SSW 11.5 mph 17.3 mph N/A   Clear
11:36 AM 30.2 °F 20.2 °F 23.0 °F 75% 30.22 in 10.0 mi SW 12.7 mph 20.7 mph N/A   Clear
12:22 PM 28.4 °F 19.1 °F 23.0 °F 80% 30.22 in 10.0 mi SW 10.4 mph 16.1 mph N/A   Mostly Cloudy
12:42 PM 30.2 °F 19.3 °F 23.0 °F 75% 30.23 in 10.0 mi SSW 15.0 mph 21.9 mph N/A   Overcast
1:02 PM 28.4 °F 17.0 °F 23.0 °F 80% 30.24 in 10.0 mi SW 15.0 mph 19.6 mph N/A   Overcast
1:22 PM 28.4 °F 17.5 °F 23.0 °F 80% 30.23 in 10.0 mi SW 13.8 mph 19.6 mph N/A   Overcast
1:42 PM 28.4 °F 16.6 °F 23.0 °F 80% 30.22 in 10.0 mi SSW 16.1 mph 20.7 mph N/A   Overcast
2:02 PM 28.4 °F 15.1 °F 23.0 °F 80% 30.22 in 10.0 mi SW 20.7 mph 24.2 mph N/A   Mostly Cloudy
2:22 PM 28.4 °F 16.2 °F 21.2 °F 74% 30.23 in 10.0 mi WSW 17.3 mph 25.3 mph N/A   Scattered Clouds
2:42 PM 26.6 °F 16.2 °F 23.0 °F 86% 30.24 in 10.0 mi WSW 11.5 mph 23.0 mph N/A   Mostly Cloudy
3:02 PM 26.6 °F 16.8 °F 23.0 °F 86% 30.24 in 10.0 mi SSW 10.4 mph 16.1 mph N/A   Overcast
3:22 PM 26.6 °F 14.7 °F 23.0 °F 86% 30.25 in 10.0 mi SW 15.0 mph - N/A   Overcast
3:42 PM 26.6 °F 16.2 °F 23.0 °F 86% 30.25 in 10.0 mi SSW 11.5 mph - N/A   Overcast
4:02 PM 26.6 °F 15.7 °F 24.8 °F 93% 30.26 in 10.0 mi SW 12.7 mph 18.4 mph N/A   Overcast
4:22 PM 26.6 °F 16.8 °F 24.8 °F 93% 30.27 in 0.2 mi SW 10.4 mph 18.4 mph N/A Snow Snow
4:42 PM 24.8 °F 15.3 °F 24.8 °F 100% 30.27 in 0.5 mi SW 9.2 mph - N/A Snow Snow
5:02 PM 24.8 °F 15.3 °F 24.8 °F 100% 30.27 in 0.5 mi SW 9.2 mph - N/A Snow Snow
5:22 PM 26.6 °F 17.5 °F 24.8 °F 93% 30.27 in 0.2 mi SW 9.2 mph 18.4 mph 0.02 in Snow Light Snow
5:42 PM 24.8 °F 14.6 °F 24.8 °F 100% 30.27 in 0.2 mi SSW 10.4 mph 18.4 mph 0.04 in Snow Heavy Snow
6:02 PM 24.8 °F 10.7 °F 24.8 °F 100% 30.27 in 0.5 mi WSW 19.6 mph 23.0 mph N/A Snow Snow
6:22 PM 24.8 °F 12.9 °F 24.8 °F 100% 30.27 in 0.2 mi WSW 13.8 mph - 0.02 in Fog Light Freezing Fog
6:42 PM 24.8 °F 14.6 °F 24.8 °F 100% 30.28 in 0.5 mi SW 10.4 mph 23.0 mph 0.03 in Fog Light Freezing Fog
7:02 PM 24.8 °F 14.6 °F 23.0 °F 93% 30.28 in 0.5 mi SSW 10.4 mph 19.6 mph 0.01 in Fog Light Freezing Fog
7:22 PM 24.8 °F 15.3 °F 23.0 °F 93% 30.29 in 0.2 mi SSW 9.2 mph 16.1 mph 0.01 in Fog Light Freezing Fog
7:42 PM 23.0 °F 10.6 °F 23.0 °F 100% 30.29 in 0.5 mi SW 13.8 mph 17.3 mph 0.01 in Fog Light Freezing Fog
8:02 PM 23.0 °F 10.1 °F 23.0 °F 100% 30.29 in 0.8 mi SW 15.0 mph 19.6 mph N/A   Overcast
8:22 PM 23.0 °F 10.6 °F 23.0 °F 100% 30.31 in 2.0 mi SW 13.8 mph 20.7 mph N/A   Overcast
8:42 PM 23.0 °F 11.1 °F 23.0 °F 100% 30.32 in 0.5 mi SSW 12.7 mph 17.3 mph N/A Fog Light Freezing Fog
9:02 PM 23.0 °F 13.9 °F 23.0 °F 100% 30.33 in 0.5 mi SW 8.1 mph - N/A Fog Light Freezing Fog
9:22 PM 23.0 °F 17.0 °F 21.2 °F 93% 30.33 in 1.8 mi WSW 4.6 mph - N/A   Overcast
9:42 PM 21.2 °F 10.1 °F 21.2 °F 100% 30.32 in 10.0 mi SW 10.4 mph - N/A   Mostly Cloudy
10:02 PM 21.2 °F 13.6 °F 21.2 °F 100% 30.33 in 7.0 mi SW 5.8 mph - N/A   Scattered Clouds
10:22 PM 21.2 °F 10.9 °F 21.2 °F 100% 30.33 in 7.0 mi SW 9.2 mph - N/A   Scattered Clouds
10:42 PM 21.2 °F 11.7 °F 21.2 °F 100% 30.34 in 10.0 mi SW 8.1 mph - N/A   Clear
11:02 PM 21.2 °F 11.7 °F 19.4 °F 93% 30.34 in 10.0 mi SW 8.1 mph - N/A   Clear
11:22 PM 21.2 °F 10.9 °F 19.4 °F 93% 30.34 in 10.0 mi SW 9.2 mph - N/A   Clear
11:42 PM 21.2 °F 10.9 °F 19.4 °F 93% 30.34 in 10.0 mi WSW 9.2 mph - N/A   Clear